Wind_Speed
29 29 30 30 30 31 31 31 31 31 32 31 31 31 31 31 30 28 25 23 22 21 21 22 22 23 24 24 23 23 23 24 22 22 22 22 22 22 22 22 22 22 23 24 28 30 30 30 29 29 30 30 29 30 30 30 30 31 31 31 31 31 29 29 30 31 32 31 30 28 27 27 26 26 27 28 26 25 25 24 22 22 23 22 20
30 30 30 30 31 32 32 32 32 33 33 32 32 32 31 31 30 28 25 24 22 21 21 22 23 23 24 24 24 23 23 23 23 22 22 22 22 22 22 22 22 22 22 24 26 28 29 29 30 30 30 31 30 30 31 31 31 32 32 32 31 31 30 30 31 32 33 33 32 29 28 29 28 27 27 28 27 26 26 25 24 23 24 22 21
31 31 31 31 31 32 33 33 34 34 34 34 33 33 32 31 30 29 27 25 23 22 21 22 23 24 24 24 24 24 23 23 23 23 22 22 22 22 22 22 22 22 22 22 24 25 26 28 29 30 31 31 30 30 31 32 32 32 32 32 32 32 32 32 32 34 35 35 34 31 29 31 32 30 29 30 30 28 27 26 25 24 24 24 23
32 32 32 32 32 33 34 35 35 35 35 34 34 33 33 32 32 30 28 26 25 24 24 23 24 25 25 25 25 25 24 23 23 23 23 23 22 23 22 22 23 23 22 23 24 25 26 28 30 31 32 31 30 29 30 32 32 32 31 32 32 32 32 33 34 35 36 37 35 32 31 32 33 32 31 32 31 29 28 27 26 25 25 25 24
33 33 33 33 33 34 35 36 37 36 36 36 35 35 34 34 34 33 31 29 28 27 27 26 26 26 27 27 27 27 26 24 23 23 24 24 23 22 22 22 23 24 24 24 25 25 26 29 31 32 32 32 31 31 31 31 32 32 32 32 32 32 32 33 35 37 38 38 35 34 33 33 33 33 32 33 33 32 30 29 28 27 26 26 25
34 34 34 34 35 35 36 37 38 38 37 37 36 36 36 36 36 35 35 33 32 31 30 29 28 27 28 28 29 30 28 25 23 23 24 25 25 24 23 23 24 25 25 26 27 26 25 29 32 31 32 33 32 32 31 31 33 33 33 33 33 33 34 34 35 36 39 39 36 35 35 34 35 36 34 35 35 33 31 31 29 28 27 27 27
35 35 35 35 36 36 37 38 39 39 39 38 38 38 38 38 38 38 37 36 35 34 33 32 30 29 29 29 30 31 30 27 25 25 24 25 26 25 24 24 24 24 24 26 27 27 25 28 31 32 33 33 33 32 30 31 34 33 33 33 34 35 35 34 34 36 38 40 38 36 35 35 37 38 37 36 34 32 32 31 30 29 28 28 29
36 36 36 36 36 37 38 38 39 40 40 40 40 40 40 40 40 39 39 38 38 36 35 34 33 32 31 30 30 31 31 29 28 27 27 26 26 26 26 25 24 24 24 25 27 27 27 27 29 31 34 34 33 33 32 31 32 32 33 34 34 35 35 35 35 36 37 39 39 37 36 37 38 38 38 37 34 33 34 32 31 31 30 30 30
36 36 36 36 37 38 38 39 39 40 41 41 41 41 42 42 42 41 41 40 40 39 38 36 35 34 33 32 31 31 32 31 30 29 29 28 27 27 27 26 25 25 25 25 26 28 29 29 28 29 33 34 33 33 33 32 31 32 33 34 35 35 36 35 36 37 37 38 38 37 37 39 39 38 39 38 35 34 35 35 34 34 32 30 30
36 36 36 36 37 38 38 39 40 40 41 42 42 43 43 43 43 42 42 42 42 42 41 39 38 36 34 34 33 32 32 33 32 31 31 29 29 29 29 28 27 26 26 26 26 27 29 30 29 29 31 32 32 33 34 33 33 33 34 35 35 35 35 35 35 37 38 38 37 37 38 39 40 38 38 38 35 35 36 36 35 35 33 31 31
36 36 36 36 37 37 38 40 40 41 42 43 43 44 44 44 44 44 43 44 44 44 43 43 41 39 37 36 36 35 34 34 34 34 34 32 30 29 30 30 29 28 27 27 27 27 29 31 30 29 29 30 32 34 34 34 34 34 34 35 35 35 35 35 35 37 38 38 37 37 38 41 41 39 38 38 38 38 37 35 35 36 34 32 32
36 35 35 36 36 37 38 39 40 41 42 43 44 45 45 45 45 45 45 45 45 46 45 45 44 43 41 39 38 38 37 36 36 36 36 36 34 31 30 31 31 30 29 28 28 28 29 31 30 29 28 29 31 33 34 34 34 34 34 34 35 35 35 35 36 36 36 37 37 37 38 41 42 41 40 40 41 40 37 36 37 37 35 34 33
36 36 36 37 37 38 39 39 40 41 42 43 44 45 46 46 47 47 47 47 47 47 47 46 45 44 43 41 40 39 39 38 37 36 36 36 36 34 32 31 32 32 31 30 30 29 29 30 30 29 29 30 31 33 33 33 34 35 34 34 34 35 35 34 34 34 34 35 36 37 39 42 42 42 41 41 41 40 37 37 38 37 36 35 34
38 38 38 39 39 39 40 41 41 42 43 44 45 46 46 47 48 48 49 49 49 49 48 48 47 46 45 43 42 40 40 39 38 37 36 36 36 36 35 33 33 33 33 33 32 31 30 30 30 29 30 31 31 32 32 34 35 35 34 34 34 33 34 34 33 32 33 34 35 37 39 40 40 41 43 42 41 40 38 37 37 37 35 34 34
39 39 40 40 41 41 42 42 43 43 44 45 46 46 47 48 48 49 49 50 50 50 50 49 49 49 48 47 46 44 42 41 40 39 38 37 37 37 37 36 35 34 34 34 34 33 31 30 30 29 30 31 31 31 32 34 35 34 33 34 35 33 33 34 34 34 33 34 34 36 38 36 35 38 42 44 44 42 40 38 38 39 39 38 37
40 40 41 41 42 42 43 44 44 45 45 46 46 47 48 49 49 50 50 51 51 51 51 51 51 51 50 50 49 48 46 44 43 42 40 38 37 37 37 38 37 36 35 35 35 34 33 31 29 29 30 31 31 31 32 32 34 34 33 34 35 33 32 33 33 33 33 32 33 36 37 35 34 36 40 43 45 44 41 40 41 44 45 44 41
42 42 43 43 43 43 43 43 44 45 46 47 48 48 49 50 50 51 51 52 52 52 52 52 52 52 52 52 51 50 48 47 45 44 43 40 37 37 38 38 38 38 37 36 35 35 34 32 30 28 29 30 31 32 32 31 33 33 33 33 34 33 32 32 32 33 32 32 33 37 39 40 40 42 44 44 45 44 42 42 45 47 47 46 43
44 44 44 44 43 43 43 43 43 44 45 46 47 48 49 50 51 51 52 52 52 52 52 53 53 53 52 52 51 50 49 48 46 45 44 42 39 36 37 38 39 39 38 36 35 35 35 33 30 28 28 29 30 32 31 30 32 33 32 32 33 33 33 32 32 33 32 32 34 38 41 43 44 44 45 45 45 45 44 45 46 46 45 45 43
43 43 43 44 44 44 45 45 46 46 46 47 48 49 50 51 51 52 53 53 53 53 53 54 53 53 53 53 52 51 50 49 48 46 44 43 40 37 36 37 38 39 38 36 35 35 34 33 31 29 28 27 29 31 31 30 32 32 31 30 32 34 34 32 32 34 35 35 35 37 41 43 42 40 39 40 43 45 46 45 45 45 44 43 41
42 43 44 44 45 46 47 47 48 48 49 49 50 51 51 52 53 53 54 54 55 55 56 56 56 56 55 55 54 54 53 52 51 49 47 45 42 39 36 36 37 38 38 36 35 34 33 33 31 29 28 28 28 29 29 30 30 30 29 29 31 33 33 33 35 36 36 36 36 37 39 41 40 38 38 39 41 43 44 43 44 44 42 39 37
41 42 43 45 46 47 48 49 50 51 51 52 53 53 54 55 55 55 56 56 56 56 57 57 57 57 57 57 57 56 55 54 54 53 51 49 46 43 40 37 37 37 37 37 35 34 33 32 30 29 28 28 28 28 29 30 29 29 30 31 31 31 33 36 38 38 34 33 33 34 35 37 38 37 37 39 40 41 43 43 42 40 36 33 32
41 43 44 46 47 48 49 51 52 53 54 54 55 56 57 57 58 58 58 58 58 58 58 58 58 58 57 57 57 56 56 55 55 54 53 52 49 47 44 41 39 38 38 37 35 34 33 32 30 29 27 26 27 30 32 32 30 30 32 34 34 34 34 36 37 36 33 32 32 33 34 36 37 36 35 36 36 38 40 42 41 39 37 35 35
41 42 44 45 46 47 49 50 51 53 54 55 56 57 58 58 59 59 59 60 60 60 60 60 59 59 58 57 57 56 55 54 54 53 53 51 49 47 45 44 41 40 39 39 37 35 34 32 30 28 27 26 28 33 35 32 30 32 35 37 38 37 34 34 35 36 36 36 37 39 39 39 39 38 36 35 35 36 37 39 40 39 39 40 41
39 40 41 43 44 45 46 47 49 50 51 52 53 54 55 56 57 58 59 59 59 59 60 60 59 59 58 58 57 56 55 54 53 52 51 50 48 46 44 42 42 41 41 40 39 36 35 33 30 27 26 27 30 38 38 32 30 31 33 35 36 37 37 38 40 41 42 43 43 42 42 41 40 39 38 37 37 36 37 38 39 38 36 38 41
34 35 35 36 37 38 39 39 40 41 42 43 44 46 47 48 49 50 51 53 54 55 56 57 57 58 57 57 56 56 55 54 52 51 50 49 48 45 43 40 40 39 39 40 40 38 36 34 31 29 30 32 34 38 39 37 34 32 31 32 33 36 40 43 45 45 44 42 40 39 40 41 40 40 39 39 39 39 39 38 36 34 33 34 36
27 27 28 28 29 29 30 31 32 33 34 35 36 37 38 39 40 41 42 43 44 45 47 49 51 52 53 54 54 54 53 52 51 49 49 48 47 45 42 40 38 37 37 38 39 39 37 35 33 32 33 35 36 37 37 35 33 32 31 32 35 39 43 45 44 41 38 37 36 37 38 37 36 35 35 35 36 38 37 35 32 30 30 31 32
21 22 23 23 25 26 27 27 28 29 30 31 32 32 33 33 34 34 35 36 36 37 38 39 41 43 45 47 49 50 50 50 49 48 47 46 45 43 41 39 37 36 35 36 37 38 38 36 35 34 34 35 35 34 33 31 31 31 32 35 38 40 42 42 39 36 36 35 34 32 29 27 25 24 25 27 30 33 34 33 32 31 31 31 33
18 19 20 21 23 24 26 27 29 30 31 32 32 32 32 31 31 31 31 31 32 32 32 33 34 35 37 39 41 43 44 45 46 45 44 44 42 41 39 38 36 35 34 35 36 36 36 36 36 35 34 34 33 32 30 27 27 28 32 34 35 34 35 35 36 36 35 32 27 23 21 18 17 18 19 22 25 28 30 32 32 32 33 34 36
17 18 19 21 22 23 25 26 28 30 31 33 34 35 34 33 31 30 29 29 29 29 29 29 29 30 31 32 33 35 37 39 40 41 41 41 40 39 38 37 36 35 34 35 35 35 35 35 36 35 34 33 31 30 31 31 29 28 28 29 30 31 31 32 34 34 30 25 21 19 17 17 18 20 21 22 24 26 28 30 31 33 34 36 37
17 18 19 21 22 23 24 26 27 28 30 31 33 35 36 36 34 32 30 29 28 28 28 28 27 27 28 28 28 30 31 33 35 36 38 38 38 38 38 37 36 35 35 35 36 36 35 35 35 35 34 33 31 31 34 35 34 31 29 28 29 29 29 29 31 31 28 23 21 20 20 21 22 24 24 24 24 26 27 28 30 32 34 35 36
16 18 19 21 22 24 25 26 27 28 29 30 31 33 35 36 37 36 34 32 30 29 29 29 28 27 26 26 26 26 27 28 29 31 33 35 36 37 37 38 37 37 36 36 37 37 36 36 37 36 35 34 34 34 36 37 36 33 30 29 29 29 29 28 29 30 29 27 27 26 26 26 27 28 28 27 26 27 27 28 29 30 31 32 32
17 18 20 21 23 25 26 27 28 29 30 30 31 32 33 35 36 37 37 36 33 31 29 29 29 28 27 26 25 24 24 24 25 26 28 31 33 35 36 38 39 39 39 38 38 37 36 36 38 39 38 38 37 36 35 36 36 34 33 32 32 32 32 32 32 33 32 31 30 30 31 31 32 31 30 28 28 28 28 29 30 32 32 33 32
17 18 20 21 23 25 26 27 28 29 30 31 31 32 33 34 35 36 38 39 37 35 32 29 28 28 28 27 26 25 24 23 23 23 24 26 29 32 34 36 38 39 40 39 39 38 37 37 38 39 41 41 41 39 37 35 35 34 35 36 36 36 37 37 36 36 36 35 34 34 34 34 34 33 32 30 30 30 29 30 32 35 37 38 38
17 18 19 21 22 24 25 27 28 29 30 31 31 32 33 33 34 35 37 38 39 38 36 33 31 30 29 29 29 27 25 23 22 21 22 23 25 27 30 33 35 38 39 39 39 39 38 38 38 38 39 41 42 42 40 38 37 37 37 38 39 40 40 40 41 41 41 41 41 40 39 37 36 36 35 35 34 33 33 33 33 34 36 38 40
16 17 18 20 21 23 24 26 27 28 29 30 31 32 32 33 34 34 36 37 38 40 40 38 36 33 32 31 31 30 27 25 23 21 20 20 21 23 26 29 31 34 36 37 38 38 37 38 38 39 39 40 41 42 42 41 40 39 39 39 40 40 40 41 41 42 42 42 42 42 41 40 40 40 40 40 39 38 38 37 36 35 36 38 41
16 16 17 19 20 21 23 24 26 27 28 29 30 31 31 32 33 34 36 37 37 38 40 41 41 38 35 33 33 33 31 27 24 22 20 19 19 20 22 24 27 30 32 33 35 35 35 36 37 39 40 41 42 44 44 44 44 42 40 38 38 38 39 39 40 40 40 41 41 41 40 41 41 42 42 43 43 42 41 41 40 39 39 41 44
15 16 16 17 19 20 22 23 24 26 27 28 29 30 30 31 32 34 35 36 36 37 38 40 41 41 39 36 34 34 34 32 28 24 21 19 18 18 19 22 24 26 28 30 31 32 33 34 35 37 39 42 44 46 46 47 48 47 45 43 41 39 38 38 37 38 39 39 40 40 41 41 41 42 42 43 43 43 43 42 42 42 42 43 44
14 15 15 16 18 20 21 22 23 24 25 26 28 29 30 31 32 33 34 34 35 36 37 38 39 41 41 40 37 35 35 35 34 30 25 21 19 17 17 19 21 23 25 27 28 29 30 31 32 33 35 37 41 43 45 46 48 49 50 50 48 46 43 41 39 38 38 38 38 39 40 41 41 42 42 43 43 43 43 43 43 43 43 44 45
14 14 15 16 17 18 20 22 23 24 25 26 27 28 30 31 32 32 32 33 34 35 36 37 38 40 41 42 41 38 36 35 35 34 30 26 22 18 16 16 17 20 22 24 25 26 27 28 29 30 31 32 34 37 40 42 45 47 49 50 51 51 49 47 45 44 42 41 40 40 40 40 41 41 42 43 43 43 43 43 43 44 44 45 45
14 14 14 15 16 17 19 21 23 24 26 27 28 29 30 31 31 31 32 32 34 35 36 36 37 38 39 41 42 41 39 36 35 35 34 31 27 22 19 16 15 16 18 20 22 24 25 26 27 28 29 30 31 33 35 37 40 42 44 46 47 48 48 48 48 47 47 46 45 44 43 42 42 42 43 44 44 44 44 44 45 45 45 45 46
14 14 15 15 16 17 18 20 22 24 26 27 29 30 31 31 30 30 31 32 33 35 36 36 36 37 38 39 41 42 41 39 37 36 36 35 32 28 24 20 17 15 15 16 18 21 22 24 25 26 27 28 29 30 32 34 36 38 40 41 42 42 43 44 44 45 45 46 45 45 45 44 44 44 44 45 45 45 46 46 46 46 46 46 46
15 15 16 16 17 18 19 20 22 23 25 27 28 29 30 30 31 31 31 31 32 34 35 36 36 37 37 37 39 40 42 41 40 37 36 35 35 33 29 25 20 17 15 14 15 16 18 20 22 23 25 26 27 28 29 30 32 34 36 37 38 39 39 39 40 41 41 42 43 44 44 44 45 45 45 45 45 45 45 45 45 45 45 44 44
15 16 16 17 17 18 19 21 22 24 25 26 28 28 29 30 31 32 32 32 32 33 34 35 36 37 37 36 37 38 40 41 41 40 38 36 36 35 33 30 25 21 18 16 15 15 15 16 18 19 21 22 24 25 26 27 28 30 31 33 34 35 36 37 38 39 39 40 41 42 42 43 43 43 43 43 43 43 43 42 42 42 41 41 40
16 17 17 17 18 18 19 21 22 24 25 26 28 29 30 30 31 32 32 32 32 32 32 34 35 36 36 36 36 36 38 39 41 41 39 38 37 36 35 33 29 25 21 18 17 16 15 15 15 16 17 19 20 22 23 24 25 26 27 28 30 31 32 33 34 35 35 36 37 37 38 39 39 40 40 40 40 39 39 38 38 37 37 36 36
17 17 18 18 18 19 20 21 22 24 26 27 28 30 31 32 32 31 31 32 32 32 32 32 33 35 36 36 36 35 36 37 39 40 40 38 37 36 35 34 32 29 25 21 18 17 16 15 15 15 15 15 17 18 19 20 21 21 23 24 26 27 28 28 29 29 30 31 31 31 32 33 33 34 34 34 34 34 33 33 32 32 32 31 31
18 18 18 18 19 19 20 22 23 24 26 27 28 29 31 32 32 31 30 31 31 32 32 31 32 33 35 35 35 35 35 36 37 38 39 38 37 36 35 35 34 32 29 24 21 18 17 16 15 15 15 15 15 15 16 17 17 18 18 19 20 21 23 24 24 25 25 25 26 26 26 27 27 28 28 28 29 29 29 28 27 26 26 26 26
19 19 19 19 19 20 21 22 23 24 25 27 28 29 30 31 32 32 31 31 30 30 31 31 32 33 34 35 35 35 34 34 35 36 37 38 38 36 35 35 35 34 32 28 24 20 17 16 15 15 15 15 15 14 14 14 15 15 15 16 16 17 17 18 19 20 20 21 21 21 21 22 22 23 23 23 23 24 24 24 23 22 22 21 21
19 19 19 20 20 21 22 22 23 25 26 27 28 29 30 31 31 32 32 31 31 31 30 31 31 32 33 34 35 35 34 34 34 35 36 37 38 37 36 35 34 33 33 31 28 23 19 17 16 15 15 15 15 15 14 14 13 13 14 14 14 14 15 15 16 16 17 17 18 18 18 19 19 20 20 20 20 20 20 20 20 20 19 19 18
20 20 20 20 20 21 22 24 24 25 26 27 28 29 30 31 31 31 31 31 31 31 31 31 31 31 32 33 34 35 34 34 33 34 34 35 37 37 37 36 34 33 33 32 31 27 23 19 16 15 15 15 15 15 15 14 13 13 13 13 13 13 13 14 14 15 16 16 17 17 18 18 18 18 19 19 19 19 18 18 18 17 16 16 16
21 21 21 21 21 22 23 24 25 26 27 27 28 29 29 30 31 31 31 31 31 30 30 31 31 31 32 32 33 34 34 34 33 33 33 34 35 36 36 36 35 34 33 32 31 29 26 22 18 16 15 15 15 15 15 15 14 13 12 12 13 13 13 13 14 15 16 16 17 18 18 19 19 19 18 18 18 17 16 15 15 15 15 14 14
21 22 22 23 23 23 24 25 25 26 27 27 27 28 28 29 30 31 31 31 30 30 30 30 31 31 31 32 33 34 34 34 33 32 32 32 33 34 35 35 35 35 33 32 31 30 28 25 22 19 16 15 14 14 15 15 14 14 13 12 12 12 12 12 13 14 16 17 18 18 19 19 19 19 18 18 17 16 15 15 14 14 13 12 12
Wind_Direction
276 277 277 277 278 278 280 281 282 282 282 283 286 288 291 294 298 303 306 308 306 305 308 311 315 317 318 319 319 317 314 312 309 305 301 298 294 287 278 271 266 263 260 255 250 249 250 249 246 247 248 249 250 249 247 249 251 251 249 247 246 245 244 243 241 239 239 244 247 247 246 246 241 239 245 249 246 244 246 246 244 244 246 247 249
277 278 279 278 277 277 278 279 280 280 280 281 283 285 288 292 296 299 302 303 301 300 304 308 311 313 314 315 315 315 313 313 313 310 304 301 299 294 287 280 275 270 268 261 251 246 248 250 249 249 250 250 250 248 248 250 252 253 253 251 249 248 245 243 242 242 243 245 247 246 244 245 242 238 242 247 245 243 245 246 244 245 248 249 250
279 280 280 278 277 276 276 277 277 277 278 279 280 283 285 289 293 296 298 297 295 294 298 304 306 308 310 311 312 313 313 314 316 315 310 306 303 302 298 293 287 281 276 268 257 250 251 253 251 250 251 252 251 248 248 251 252 253 254 254 252 250 248 244 241 243 245 245 247 247 243 242 241 239 241 246 248 244 244 246 246 246 250 251 252
280 280 279 278 277 276 275 276 276 275 276 276 278 281 283 286 289 292 293 292 290 290 293 298 301 303 305 307 308 309 311 313 315 315 314 310 306 303 301 299 297 292 285 276 265 257 256 256 255 254 254 254 253 250 249 251 253 253 254 255 253 251 249 246 244 245 246 246 247 247 244 240 241 242 241 244 248 245 244 247 248 248 251 253 254
279 278 278 277 276 275 275 275 275 275 275 276 277 280 282 285 287 289 290 290 289 289 291 293 295 297 300 302 304 305 308 310 312 312 310 309 308 304 301 298 297 296 292 285 275 267 262 260 259 260 259 258 256 253 251 250 251 252 252 254 254 253 251 249 247 246 245 245 244 244 244 239 238 240 241 242 244 242 244 248 249 249 251 253 256
277 277 277 276 276 275 275 275 276 276 276 276 277 280 282 284 285 287 288 289 290 290 291 292 293 294 295 297 299 301 304 305 306 306 305 304 305 304 303 300 297 296 293 289 284 277 269 264 262 262 261 259 257 255 251 248 249 250 251 252 254 254 253 251 250 248 245 243 238 237 241 240 235 235 236 239 242 243 244 247 248 249 250 251 254
276 276 276 276 275 275 275 275 276 277 276 276 277 280 281 282 284 285 287 288 290 291 292 292 292 292 292 293 294 297 299 300 300 301 302 302 302 301 301 301 300 299 294 289 287 284 277 268 264 262 261 261 260 258 254 249 249 249 249 250 252 252 251 250 248 247 245 241 235 232 236 240 238 236 235 236 239 242 244 246 248 248 248 249 253
276 276 275 275 275 275 275 275 276 277 277 277 278 280 281 282 283 285 286 288 290 291 292 292 291 291 290 290 291 292 294 296 297 298 299 300 299 298 298 297 298 298 296 292 289 286 281 274 268 266 264 263 261 258 256 253 251 251 249 249 250 251 250 247 244 243 242 240 235 231 233 238 240 240 238 234 232 236 241 244 246 246 245 247 250
276 276 276 275 275 275 274 274 275 276 276 277 278 279 281 282 283 285 286 288 289 290 291 291 290 290 289 289 289 289 291 292 293 295 296 298 298 296 295 295 295 294 293 291 289 287 284 279 275 270 266 265 262 259 259 257 254 251 250 249 250 250 247 243 241 241 240 239 236 232 234 239 241 243 240 233 230 234 240 242 242 242 243 245 249
277 277 277 277 276 276 275 275 275 276 276 277 278 279 281 282 283 284 286 287 288 289 290 290 290 288 288 288 288 288 288 289 291 291 292 294 295 294 293 292 293 293 291 288 286 285 284 281 279 274 268 265 264 260 258 257 254 251 250 249 248 248 246 243 242 241 240 240 238 235 237 241 242 244 242 236 233 237 240 243 242 241 243 246 249
277 278 278 278 277 277 278 278 278 277 277 278 278 279 280 281 282 283 284 285 286 287 288 289 289 288 286 286 286 286 287 287 288 290 290 291 292 292 291 290 290 290 290 288 284 282 281 280 279 278 273 267 263 260 257 256 254 253 251 249 247 247 247 245 243 243 241 240 238 236 238 241 241 241 240 236 236 238 238 240 243 244 247 249 249
279 280 280 280 279 280 280 280 279 279 279 279 279 279 280 280 280 281 282 283 284 286 286 287 287 287 286 285 284 284 285 286 286 287 288 289 290 290 290 289 288 288 288 288 286 282 280 280 279 279 275 268 263 260 258 256 257 256 253 250 247 247 247 247 245 243 241 239 237 235 237 241 240 239 239 237 237 239 238 238 242 246 248 250 249
282 284 284 284 283 283 282 281 280 280 280 279 280 280 280 280 280 281 281 282 283 284 285 285 285 285 285 285 284 283 283 284 284 284 285 286 288 289 289 289 288 287 286 286 286 284 282 281 279 276 272 267 263 262 261 259 259 259 256 252 249 248 248 248 246 242 238 238 239 237 237 239 239 238 241 240 238 239 240 240 243 246 248 248 247
287 288 289 288 287 286 284 283 282 281 280 280 280 280 280 280 280 280 281 281 282 283 283 284 284 284 284 284 283 283 282 281 281 282 282 283 285 286 287 288 287 286 285 284 284 284 283 281 280 276 270 266 264 263 263 261 261 261 258 254 252 250 249 247 243 242 241 241 243 241 237 237 239 241 243 242 239 237 238 239 242 244 245 245 245
289 290 289 289 288 287 286 285 284 283 282 281 280 280 280 280 280 280 280 280 281 281 282 282 283 283 283 282 282 282 282 282 281 280 280 280 281 282 283 285 285 285 284 283 282 283 282 281 282 278 269 264 263 263 262 261 262 261 257 252 251 250 248 245 242 243 245 244 243 240 237 237 241 243 244 244 242 238 236 237 239 240 242 243 245
289 289 289 289 288 287 286 285 284 283 282 281 281 280 280 280 280 280 280 280 280 280 280 281 281 281 282 282 282 282 283 282 281 280 279 277 277 278 279 280 282 283 283 282 281 281 281 280 281 280 271 264 261 261 261 260 260 258 255 251 251 250 247 244 242 242 243 243 242 239 237 237 237 239 243 246 244 239 235 234 236 239 243 246 248
288 289 289 289 288 287 287 286 285 284 282 281 280 280 279 279 279 279 279 279 279 279 279 280 280 280 281 281 282 282 283 282 281 280 279 277 275 275 276 276 278 279 280 281 281 280 279 279 279 279 273 265 261 261 261 261 259 257 254 253 253 253 248 246 247 245 242 242 242 240 238 239 241 244 247 248 245 240 235 235 237 240 244 247 249
287 288 288 288 288 288 288 288 287 286 285 284 282 281 280 279 279 278 278 278 278 278 278 278 279 279 279 280 280 281 281 281 281 280 279 278 276 274 273 273 274 275 276 278 279 278 278 278 277 276 273 267 262 260 260 258 257 256 254 253 254 253 251 251 252 249 245 243 244 243 242 244 248 250 250 248 245 241 236 235 237 241 245 247 248
287 288 289 289 289 288 288 288 288 288 287 286 285 283 282 280 279 278 278 277 277 277 277 277 277 277 277 278 278 278 279 278 279 278 278 278 276 273 271 270 271 272 273 274 275 276 276 276 275 275 274 269 263 261 259 256 255 256 255 253 252 252 253 254 252 249 246 244 245 247 247 247 248 247 244 243 243 241 238 237 239 241 244 246 248
289 289 290 290 290 290 289 289 289 288 288 287 286 285 284 282 281 280 279 278 277 277 276 276 276 276 276 276 276 276 277 277 277 276 276 276 275 273 270 267 267 270 271 271 272 273 274 275 274 273 272 270 265 262 260 259 259 258 256 254 252 250 251 251 250 249 248 245 244 248 249 248 246 244 240 240 243 243 241 239 240 242 245 249 252
290 291 291 291 291 291 291 290 290 289 288 287 286 285 284 283 282 281 280 280 279 278 277 277 276 275 275 275 275 275 276 276 276 276 276 275 275 274 271 267 265 266 268 270 270 270 272 273 272 270 270 269 265 260 258 257 258 261 262 258 251 246 244 244 246 246 245 243 241 242 244 244 245 245 245 246 248 249 245 240 239 241 244 248 250
292 293 293 293 292 292 292 291 290 290 289 288 287 286 285 284 283 282 281 280 279 278 278 277 277 276 276 275 275 275 275 275 275 275 275 275 275 274 272 270 266 264 265 268 269 268 268 269 269 268 267 267 263 257 254 254 253 255 258 252 241 236 235 234 235 236 234 231 229 229 233 240 245 249 251 251 251 250 246 241 238 239 241 242 242
294 294 294 294 293 293 292 291 291 290 289 288 287 286 285 284 283 282 281 280 279 278 277 276 276 275 275 275 275 274 274 274 274 274 274 274 274 274 272 271 268 265 263 265 267 268 267 266 265 263 262 261 249 231 228 237 243 247 252 250 242 238 234 227 224 225 225 225 227 230 235 243 250 253 253 252 251 248 244 241 239 239 241 243 244
295 295 295 295 295 294 294 293 292 292 291 290 289 288 287 286 285 283 282 281 279 278 277 276 275 274 274 273 273 273 273 273 273 273 273 273 273 273 272 270 268 266 264 263 264 266 267 266 263 258 253 251 236 220 222 241 256 257 258 257 251 247 242 234 228 227 229 231 234 239 243 248 252 252 250 249 248 245 242 241 242 242 240 242 245
299 300 300 301 302 302 302 302 301 300 299 298 296 294 293 291 289 287 286 284 282 280 278 277 275 274 273 272 272 271 271 271 271 271 271 271 271 271 271 269 267 265 263 262 262 263 264 264 262 255 248 246 244 242 250 263 269 267 267 266 260 254 246 239 235 233 234 237 241 246 248 249 249 248 246 247 246 244 241 241 241 242 241 242 244
308 310 312 315 317 318 319 319 319 318 316 314 311 308 305 302 299 297 294 292 289 286 283 280 277 275 273 271 270 270 269 269 268 268 268 269 269 269 268 267 265 262 260 260 260 261 261 260 259 256 252 251 254 259 263 266 266 267 265 259 252 244 237 233 232 232 236 243 248 250 250 247 245 244 244 243 241 239 237 236 238 242 244 244 245
324 327 331 334 337 339 341 342 342 342 341 338 334 329 324 319 314 311 307 304 301 297 293 288 284 280 276 273 270 269 267 266 266 266 265 266 266 266 265 264 262 259 257 255 256 257 257 257 255 255 254 255 257 261 263 262 261 257 247 238 235 233 230 230 233 239 246 250 249 246 242 239 240 240 239 237 235 233 232 234 238 242 244 245 248
338 342 346 349 352 354 356 356 357 358 358 358 355 351 344 337 330 324 319 315 311 308 305 301 296 290 285 280 275 271 268 265 264 263 262 262 262 261 261 260 259 256 253 252 252 253 253 254 253 252 252 253 256 259 259 253 248 244 240 236 236 237 238 242 247 251 250 244 236 231 231 235 241 246 244 241 238 237 237 238 241 244 247 250 253
345 349 353 356 357 359 360 1 2 3 4 4 5 3 0 354 347 339 332 327 323 319 316 313 309 303 296 289 283 278 273 268 264 261 259 258 257 256 256 255 254 252 250 248 248 249 250 251 252 251 250 249 251 253 252 246 242 244 246 246 249 251 252 254 254 248 237 228 227 233 241 249 257 262 262 258 250 245 244 243 245 247 250 253 255
348 351 354 356 356 357 359 1 2 2 3 4 5 6 6 5 1 354 347 340 336 332 328 324 321 316 310 302 294 287 280 274 268 263 259 255 253 251 250 249 248 247 246 244 244 245 244 245 247 247 247 246 246 247 249 250 251 252 250 248 250 251 251 251 246 236 227 226 233 240 246 254 260 264 266 263 257 251 248 247 248 249 251 253 256
349 352 354 355 355 357 358 359 360 0 2 3 4 5 6 7 7 5 1 354 348 343 340 337 334 329 323 316 309 300 290 282 274 268 262 257 252 248 246 244 243 243 243 242 242 242 241 241 241 240 240 241 242 244 248 253 257 259 255 249 245 242 241 243 243 240 238 240 241 243 246 252 259 263 264 261 258 255 252 252 251 252 253 255 257
350 353 354 355 356 357 358 358 359 360 1 2 3 3 4 6 7 8 8 6 0 354 348 345 343 340 335 330 323 315 305 295 284 275 268 261 256 250 245 242 240 240 240 240 241 241 239 238 238 237 234 234 236 241 245 250 254 257 257 255 250 244 240 239 240 242 244 245 247 248 251 255 259 260 258 257 257 257 257 257 257 258 260 262 264
351 353 354 355 356 357 357 358 359 0 1 1 2 3 3 4 5 6 9 10 8 4 357 352 349 349 347 343 336 328 319 309 298 287 276 268 261 255 249 244 241 240 239 239 239 239 238 237 237 236 234 232 232 235 239 244 249 252 254 256 254 250 245 241 240 241 242 243 245 246 248 252 255 255 254 253 254 255 256 257 257 258 260 262 264
350 352 353 354 355 357 357 357 359 0 1 1 1 2 3 4 4 5 6 9 10 9 6 2 357 355 355 353 349 342 332 323 312 301 289 278 268 261 255 250 246 243 241 240 239 238 237 236 236 237 236 235 234 234 236 240 245 247 250 252 253 252 249 247 246 245 246 246 247 246 244 243 244 247 250 252 252 252 253 255 257 257 256 257 259
345 348 350 352 354 355 355 356 358 360 360 360 0 1 2 3 4 4 5 7 8 9 10 8 5 1 360 359 357 354 346 336 326 315 303 291 279 269 261 256 252 249 247 245 243 241 239 236 235 236 237 237 237 236 236 237 240 243 247 250 252 252 252 252 251 251 251 251 251 251 249 246 243 243 245 248 250 251 251 252 254 255 256 259 263
341 344 346 348 350 352 353 356 358 358 358 359 359 359 1 2 2 4 6 5 5 7 10 10 9 6 4 2 1 360 357 351 340 329 318 305 292 280 270 263 258 255 253 250 248 247 244 240 236 234 234 236 238 238 238 237 236 239 243 247 250 251 253 254 255 255 255 256 255 255 255 254 252 250 249 249 251 252 251 251 251 253 256 259 262
338 341 342 345 347 349 351 354 356 357 357 358 357 357 359 0 2 4 5 4 3 5 9 11 11 9 7 5 4 3 2 1 356 347 335 322 308 293 280 271 264 259 257 255 253 251 249 247 244 239 236 235 236 237 239 239 238 238 240 244 247 248 249 250 252 253 254 255 255 256 256 256 255 255 254 254 254 253 252 252 251 252 254 256 258
338 339 341 344 346 347 348 351 354 355 355 356 356 356 357 359 1 3 3 2 3 5 7 8 10 10 9 8 7 6 6 6 4 0 352 341 327 311 295 282 272 265 260 258 257 255 253 252 251 249 246 243 241 240 240 241 241 240 240 242 245 247 249 250 251 251 251 252 253 254 255 256 256 256 257 257 256 256 255 254 253 253 254 256 258
340 342 343 345 345 345 346 348 350 352 354 355 355 355 356 358 359 359 359 360 2 5 6 6 8 10 10 9 8 8 8 8 7 6 3 357 347 333 316 300 286 275 267 262 260 258 255 253 252 251 250 249 248 246 245 244 245 245 244 243 244 246 248 249 251 252 252 253 254 255 255 256 257 258 258 258 257 257 256 256 255 255 255 256 258
344 345 345 345 345 346 347 347 348 350 353 354 354 355 356 357 356 355 356 358 1 4 5 6 7 8 9 9 9 8 8 8 8 8 8 5 0 352 340 324 307 291 279 271 266 263 260 257 254 251 249 249 249 248 248 248 248 249 249 249 248 248 248 249 250 251 252 254 255 255 255 256 256 257 257 257 257 257 257 257 257 257 257 258 259
349 349 347 347 347 348 348 348 349 350 351 353 354 355 355 354 353 353 354 356 360 3 4 4 5 6 8 8 9 8 8 8 8 9 9 8 6 2 355 345 332 317 301 287 277 270 266 263 260 256 253 251 250 249 249 249 249 250 251 252 253 252 252 251 251 252 253 254 255 255 254 254 254 255 255 256 257 258 259 259 259 259 259 260 261
353 352 351 350 349 349 349 350 350 351 351 352 352 353 353 352 351 353 355 357 358 0 1 2 4 5 6 7 8 8 8 8 8 9 9 9 8 7 3 357 349 339 327 313 299 287 278 272 267 263 259 256 253 251 250 249 249 249 250 251 252 253 254 254 254 254 254 253 253 253 253 254 254 254 255 256 257 258 259 259 259 259 260 261 261
355 355 353 351 350 350 351 352 351 351 351 350 350 351 352 352 352 353 354 356 357 358 359 1 3 3 4 5 6 7 8 8 8 8 8 8 9 8 6 2 357 350 342 333 323 312 300 288 279 273 268 264 260 256 254 252 251 250 249 249 249 250 251 252 252 252 252 251 251 252 252 253 253 254 254 255 256 256 257 257 258 258 259 259 259
356 355 354 351 351 351 352 352 351 350 349 349 349 350 351 353 353 353 353 353 354 355 357 359 0 1 2 3 4 5 6 7 8 8 8 8 7 7 7 5 1 356 349 342 336 329 321 313 302 291 281 274 269 265 261 259 257 255 254 252 251 249 249 249 249 249 248 249 249 250 250 251 252 252 253 254 255 255 256 256 257 258 257 257 258
355 354 352 351 351 351 351 351 350 349 348 348 349 350 350 351 352 353 352 351 352 353 355 356 357 359 1 2 2 3 5 6 8 8 8 8 7 5 6 6 5 1 355 348 342 336 331 327 321 314 304 292 282 274 269 267 265 263 262 260 258 256 253 251 250 249 249 248 248 249 250 250 251 251 252 252 252 253 253 254 255 256 255 255 255
352 352 351 350 349 349 350 349 349 348 348 348 349 349 349 349 350 350 351 351 351 351 352 353 355 357 358 360 1 1 2 4 6 7 8 8 8 6 4 5 5 4 360 354 347 340 336 332 329 325 321 314 303 290 280 273 269 269 269 267 266 263 261 258 256 255 254 253 252 251 251 252 253 253 253 253 252 252 252 252 250 250 249 249 249
349 349 348 347 347 347 348 347 347 347 348 348 347 347 348 348 348 348 349 350 351 350 350 352 354 355 356 357 358 360 1 2 4 5 6 7 8 8 6 4 4 3 1 358 352 344 337 333 331 328 326 323 320 311 298 286 276 272 271 271 271 269 267 265 262 261 259 258 256 255 255 254 253 252 251 250 250 250 249 246 243 241 240 240 241
347 348 347 346 345 345 345 345 346 346 346 347 346 346 346 346 347 347 347 348 348 349 350 351 352 353 353 354 356 357 359 360 1 3 5 5 6 7 7 6 4 3 1 360 357 351 342 336 332 329 326 325 324 321 314 304 291 281 275 273 272 270 269 268 267 264 262 259 257 255 253 251 249 247 244 241 238 237 236 236 235 234 235 235 235
347 347 346 344 343 344 344 344 345 345 345 345 345 344 343 344 346 347 347 347 346 346 347 348 350 351 352 352 353 354 356 358 359 0 2 4 4 5 6 6 4 3 2 1 359 355 348 341 333 329 326 325 324 322 319 315 306 295 285 280 276 272 269 267 265 263 261 258 254 251 248 246 244 241 238 235 233 232 232 232 231 230 231 233 235
346 345 344 343 342 343 343 343 343 344 344 344 343 342 342 343 345 346 346 346 345 345 346 346 347 349 349 350 351 352 354 355 357 358 359 1 2 3 4 5 4 3 2 1 359 357 352 346 338 331 328 325 323 320 319 317 313 306 297 289 285 280 274 268 263 260 257 254 251 248 246 243 241 238 235 233 232 230 229 229 229 229 231 234 238
343 343 343 342 342 342 342 341 341 342 342 341 341 341 341 342 344 345 345 345 345 346 346 345 346 346 347 347 348 349 351 352 354 356 357 358 360 1 2 3 3 3 2 1 360 359 356 351 343 336 330 326 323 321 319 316 313 309 303 296 290 287 282 277 269 262 256 252 249 246 244 242 239 236 234 232 229 227 226 228 230 231 233 236 241
Height
5784 5784 5784 5783 5783 5782 5781 5780 5779 5778 5777 5776 5774 5773 5772 5771 5770 5769 5769 5769 5768 5767 5766 5765 5764 5763 5761 5760 5759 5757 5756 5754 5753 5752 5751 5751 5751 5750 5749 5747 5746 5745 5745 5745 5745 5746 5746 5747 5747 5746 5746 5747 5748 5749 5750 5751 5752 5752 5753 5755 5757 5759 5760 5760 5761 5763 5764 5766 5767 5768 5770 5771 5772 5772 5771 5772 5774 5775 5775 5776 5777 5778 5777 5778 5779
5781 5781 5780 5780 5779 5778 5777 5777 5776 5775 5774 5772 5771 5770 5769 5768 5767 5766 5766 5765 5765 5764 5763 5762 5761 5760 5759 5757 5756 5755 5753 5751 5750 5749 5749 5748 5748 5747 5746 5745 5743 5742 5741 5741 5741 5741 5742 5743 5743 5742 5742 5743 5744 5745 5746 5747 5748 5748 5749 5751 5753 5754 5756 5756 5757 5758 5760 5761 5762 5764 5765 5766 5767 5768 5768 5768 5770 5772 5772 5773 5774 5774 5774 5775 5776
5777 5777 5776 5776 5775 5774 5773 5773 5772 5771 5770 5769 5767 5766 5765 5765 5764 5763 5762 5762 5761 5761 5760 5759 5758 5757 5756 5754 5753 5752 5751 5749 5748 5746 5746 5745 5745 5744 5743 5742 5741 5740 5738 5738 5738 5738 5738 5738 5739 5739 5739 5739 5740 5741 5742 5743 5744 5745 5746 5748 5749 5750 5751 5752 5753 5754 5755 5756 5758 5760 5761 5762 5762 5764 5765 5764 5765 5768 5769 5769 5770 5771 5771 5771 5772
5774 5773 5772 5772 5771 5770 5769 5769 5767 5767 5766 5765 5764 5763 5762 5761 5760 5759 5758 5758 5758 5757 5756 5756 5754 5753 5752 5751 5750 5748 5748 5747 5745 5744 5742 5742 5741 5740 5739 5739 5738 5737 5736 5736 5735 5735 5734 5734 5734 5734 5734 5735 5735 5736 5737 5738 5739 5740 5742 5744 5746 5746 5747 5748 5748 5750 5751 5752 5754 5756 5757 5757 5758 5760 5761 5761 5762 5764 5765 5765 5766 5767 5767 5768 5769
5770 5769 5768 5767 5766 5766 5765 5764 5763 5762 5761 5761 5760 5759 5758 5757 5756 5755 5754 5754 5753 5753 5752 5752 5751 5750 5749 5748 5746 5745 5745 5744 5743 5741 5739 5738 5737 5736 5735 5734 5733 5733 5733 5732 5732 5731 5731 5729 5728 5729 5730 5731 5731 5731 5732 5733 5734 5735 5737 5739 5741 5743 5744 5745 5745 5746 5747 5748 5750 5751 5752 5753 5754 5756 5757 5758 5758 5760 5761 5761 5761 5762 5763 5764 5765
5765 5764 5763 5763 5762 5761 5761 5759 5758 5757 5757 5756 5755 5755 5754 5753 5752 5751 5750 5749 5749 5748 5748 5747 5747 5746 5745 5744 5742 5741 5741 5741 5740 5739 5737 5735 5734 5733 5732 5730 5729 5729 5729 5729 5728 5728 5727 5725 5723 5725 5727 5727 5726 5726 5727 5729 5729 5730 5732 5735 5736 5737 5739 5740 5742 5742 5742 5743 5744 5746 5746 5748 5749 5750 5751 5752 5753 5755 5756 5756 5756 5758 5760 5761 5761
5761 5760 5759 5758 5758 5757 5756 5755 5754 5753 5753 5752 5751 5750 5750 5749 5748 5747 5746 5745 5745 5744 5743 5743 5742 5741 5741 5740 5738 5737 5737 5737 5736 5735 5734 5733 5731 5729 5728 5727 5726 5725 5725 5724 5724 5724 5724 5722 5720 5721 5722 5722 5723 5722 5723 5724 5725 5726 5728 5729 5731 5732 5733 5735 5736 5736 5736 5737 5739 5740 5741 5742 5744 5745 5747 5747 5748 5749 5751 5752 5753 5754 5755 5756 5757
5756 5755 5755 5754 5753 5753 5752 5751 5750 5749 5748 5748 5747 5746 5745 5744 5743 5743 5742 5741 5740 5740 5739 5738 5737 5736 5736 5735 5734 5733 5733 5733 5732 5731 5730 5729 5728 5727 5725 5724 5723 5722 5721 5720 5720 5719 5719 5718 5717 5717 5717 5717 5719 5718 5718 5719 5721 5722 5723 5724 5725 5727 5728 5729 5730 5730 5731 5732 5734 5735 5736 5737 5738 5740 5742 5743 5744 5745 5746 5748 5749 5750 5751 5751 5752
5751 5751 5750 5750 5749 5748 5748 5747 5746 5745 5744 5743 5742 5742 5741 5740 5739 5738 5738 5737 5736 5735 5734 5734 5733 5732 5731 5730 5729 5729 5728 5728 5728 5727 5726 5725 5724 5723 5722 5721 5719 5718 5717 5716 5715 5714 5713 5713 5713 5713 5712 5712 5713 5714 5714 5715 5717 5718 5718 5719 5720 5721 5722 5723 5724 5725 5726 5727 5729 5730 5731 5731 5733 5735 5736 5739 5741 5742 5742 5743 5744 5744 5746 5747 5748
5747 5747 5746 5746 5745 5744 5743 5742 5741 5740 5739 5738 5737 5737 5736 5735 5734 5734 5733 5732 5731 5730 5729 5729 5728 5727 5726 5725 5724 5724 5724 5723 5723 5722 5722 5721 5721 5720 5718 5717 5716 5714 5713 5712 5711 5710 5708 5707 5707 5708 5707 5708 5708 5709 5709 5710 5712 5713 5713 5714 5714 5715 5717 5718 5719 5720 5721 5723 5724 5726 5726 5727 5728 5730 5732 5735 5737 5737 5737 5738 5739 5739 5741 5742 5743
5743 5743 5742 5741 5741 5740 5739 5737 5736 5735 5734 5733 5732 5731 5730 5730 5729 5728 5728 5727 5726 5725 5724 5723 5723 5722 5721 5720 5720 5719 5718 5718 5718 5717 5716 5716 5716 5716 5714 5713 5712 5710 5709 5708 5707 5706 5704 5703 5702 5703 5704 5704 5703 5703 5703 5705 5706 5707 5708 5709 5709 5711 5712 5712 5714 5715 5716 5717 5719 5720 5721 5722 5723 5725 5728 5729 5731 5732 5733 5735 5735 5735 5736 5737 5738
5739 5739 5738 5737 5736 5735 5734 5733 5732 5731 5729 5728 5727 5726 5725 5724 5723 5723 5722 5721 5721 5720 5719 5718 5717 5716 5715 5715 5714 5713 5713 5712 5712 5712 5711 5710 5710 5710 5709 5708 5707 5706 5705 5703 5702 5701 5700 5698 5698 5699 5699 5699 5697 5697 5698 5700 5700 5701 5703 5704 5705 5706 5706 5707 5708 5710 5711 5712 5714 5715 5717 5717 5719 5721 5723 5724 5725 5727 5729 5730 5730 5731 5731 5732 5733
5735 5734 5733 5733 5731 5730 5729 5728 5727 5725 5724 5723 5722 5720 5720 5718 5718 5717 5716 5716 5715 5714 5713 5712 5711 5710 5709 5709 5708 5708 5707 5707 5706 5706 5706 5705 5704 5704 5703 5703 5702 5701 5700 5699 5697 5696 5696 5694 5694 5694 5694 5693 5693 5692 5693 5695 5695 5696 5698 5699 5700 5701 5702 5702 5703 5704 5705 5707 5709 5711 5712 5712 5713 5716 5717 5719 5720 5722 5724 5725 5726 5726 5727 5727 5728
5730 5729 5729 5727 5726 5725 5723 5722 5721 5720 5718 5717 5716 5715 5714 5713 5712 5711 5711 5710 5709 5708 5707 5706 5705 5704 5704 5703 5702 5702 5701 5701 5701 5700 5701 5700 5699 5698 5697 5697 5697 5696 5695 5694 5693 5691 5690 5689 5689 5689 5688 5688 5688 5688 5689 5690 5690 5691 5693 5693 5694 5695 5696 5697 5698 5699 5701 5703 5704 5706 5706 5707 5709 5711 5712 5713 5715 5717 5719 5720 5721 5722 5723 5723 5723
5726 5725 5724 5722 5721 5720 5718 5716 5715 5714 5712 5711 5710 5710 5708 5707 5706 5705 5704 5704 5703 5702 5701 5700 5699 5698 5697 5696 5696 5695 5695 5695 5694 5694 5694 5695 5694 5693 5692 5691 5691 5690 5690 5689 5688 5687 5686 5684 5684 5684 5683 5682 5682 5683 5684 5685 5685 5686 5688 5688 5689 5690 5691 5692 5693 5694 5696 5698 5699 5700 5701 5702 5705 5706 5707 5709 5710 5712 5714 5716 5717 5717 5717 5717 5717
5721 5720 5719 5717 5716 5714 5713 5711 5710 5708 5707 5706 5705 5703 5702 5701 5700 5699 5698 5697 5696 5696 5695 5693 5692 5691 5690 5690 5689 5689 5689 5688 5688 5687 5687 5688 5688 5688 5687 5686 5685 5684 5684 5684 5683 5682 5681 5679 5678 5678 5677 5677 5677 5677 5678 5679 5679 5681 5682 5683 5684 5685 5686 5687 5688 5690 5691 5692 5694 5695 5696 5698 5700 5701 5702 5704 5705 5707 5709 5710 5711 5711 5710 5711 5712
5716 5715 5713 5712 5710 5708 5707 5705 5704 5702 5701 5699 5698 5697 5696 5694 5693 5692 5691 5690 5689 5689 5688 5686 5686 5685 5684 5683 5682 5682 5681 5681 5680 5680 5680 5681 5682 5682 5681 5681 5680 5678 5678 5678 5677 5676 5675 5674 5673 5672 5671 5672 5672 5672 5673 5674 5674 5675 5677 5678 5679 5680 5681 5682 5683 5684 5686 5687 5688 5690 5692 5694 5695 5696 5697 5698 5700 5702 5703 5703 5703 5704 5705 5706 5707
5711 5709 5708 5706 5704 5703 5701 5700 5698 5696 5695 5693 5692 5690 5689 5688 5687 5685 5684 5683 5682 5681 5680 5679 5678 5677 5676 5676 5675 5675 5674 5673 5673 5673 5672 5673 5674 5675 5675 5674 5674 5673 5672 5672 5671 5671 5670 5669 5668 5667 5667 5667 5667 5667 5668 5669 5670 5670 5672 5673 5674 5674 5675 5677 5678 5679 5680 5681 5683 5685 5687 5689 5691 5691 5692 5693 5694 5696 5697 5697 5697 5698 5699 5700 5702
5706 5704 5702 5700 5699 5698 5696 5694 5692 5690 5689 5687 5685 5683 5682 5681 5679 5678 5677 5676 5675 5674 5673 5671 5671 5670 5669 5668 5668 5667 5667 5666 5666 5666 5665 5665 5666 5668 5668 5668 5668 5667 5667 5666 5666 5665 5665 5664 5664 5663 5662 5663 5662 5662 5663 5664 5665 5666 5667 5667 5668 5670 5671 5672 5673 5674 5675 5676 5678 5680 5682 5683 5686 5686 5686 5687 5688 5690 5691 5692 5693 5693 5694 5695 5697
5701 5699 5697 5695 5693 5692 5690 5688 5686 5684 5682 5680 5678 5676 5675 5673 5672 5670 5669 5668 5667 5666 5664 5663 5662 5662 5661 5661 5660 5660 5659 5659 5658 5658 5658 5658 5659 5660 5661 5661 5661 5661 5661 5660 5660 5660 5660 5659 5658 5658 5658 5658 5657 5658 5659 5660 5661 5662 5662 5663 5664 5665 5666 5667 5668 5669 5670 5671 5672 5674 5675 5677 5680 5681 5682 5683 5683 5684 5686 5687 5688 5688 5689 5691 5692
5696 5694 5692 5689 5688 5686 5684 5682 5679 5677 5675 5673 5671 5669 5667 5665 5664 5662 5661 5659 5658 5657 5656 5654 5654 5653 5653 5652 5652 5652 5651 5651 5650 5650 5651 5651 5652 5653 5654 5654 5654 5655 5655 5655 5654 5654 5654 5654 5653 5653 5653 5653 5653 5654 5655 5655 5656 5657 5657 5658 5659 5660 5661 5662 5663 5664 5665 5666 5667 5668 5669 5671 5673 5676 5677 5678 5679 5680 5681 5682 5683 5683 5685 5686 5687
5691 5689 5686 5684 5682 5680 5678 5675 5672 5670 5668 5665 5663 5661 5659 5657 5655 5653 5652 5650 5649 5648 5646 5645 5645 5644 5644 5643 5643 5643 5643 5643 5643 5642 5642 5643 5644 5645 5646 5647 5648 5648 5648 5648 5649 5649 5648 5649 5649 5649 5649 5648 5648 5649 5649 5650 5652 5653 5652 5653 5654 5654 5655 5656 5657 5658 5660 5661 5662 5663 5664 5665 5667 5669 5671 5672 5673 5675 5676 5678 5678 5678 5680 5681 5682
5686 5684 5681 5678 5676 5674 5672 5669 5665 5663 5660 5657 5655 5652 5650 5648 5646 5644 5642 5641 5639 5638 5637 5636 5635 5635 5635 5634 5634 5634 5634 5634 5634 5634 5634 5635 5636 5637 5638 5639 5640 5641 5642 5642 5643 5643 5642 5643 5644 5645 5645 5644 5643 5642 5641 5643 5645 5647 5647 5648 5649 5649 5650 5650 5651 5653 5654 5656 5657 5658 5659 5660 5662 5663 5665 5666 5668 5669 5670 5672 5673 5674 5675 5675 5676
5681 5679 5676 5673 5670 5668 5665 5662 5659 5656 5653 5650 5647 5644 5642 5639 5637 5634 5632 5631 5629 5628 5627 5626 5625 5625 5625 5625 5624 5624 5625 5625 5626 5626 5626 5627 5628 5629 5630 5631 5632 5633 5634 5635 5636 5637 5636 5636 5639 5640 5641 5641 5640 5638 5635 5636 5638 5640 5641 5643 5644 5645 5645 5646 5646 5647 5648 5649 5651 5653 5655 5656 5656 5657 5659 5660 5662 5663 5664 5666 5667 5668 5669 5669 5670
5676 5674 5671 5668 5665 5662 5660 5656 5653 5650 5647 5643 5640 5637 5634 5631 5628 5626 5623 5621 5619 5618 5617 5616 5615 5615 5615 5615 5615 5615 5615 5616 5617 5618 5618 5618 5620 5621 5622 5624 5625 5626 5627 5628 5629 5630 5630 5630 5632 5634 5634 5635 5635 5633 5632 5631 5633 5635 5636 5636 5638 5639 5639 5640 5640 5641 5642 5644 5647 5648 5649 5650 5650 5651 5652 5654 5656 5657 5658 5659 5661 5662 5663 5664 5665
5672 5670 5667 5664 5661 5659 5656 5653 5649 5646 5642 5638 5635 5631 5628 5625 5622 5619 5616 5613 5611 5609 5608 5606 5605 5604 5604 5605 5605 5605 5606 5607 5608 5609 5609 5610 5611 5613 5615 5616 5617 5618 5620 5621 5621 5622 5623 5624 5625 5626 5628 5627 5627 5628 5628 5628 5629 5630 5630 5631 5632 5633 5634 5634 5635 5636 5638 5640 5641 5642 5643 5644 5644 5645 5646 5648 5649 5651 5652 5654 5655 5657 5658 5659 5660
5669 5667 5665 5662 5659 5656 5653 5650 5647 5643 5640 5636 5632 5628 5624 5621 5617 5614 5611 5608 5605 5603 5601 5599 5597 5596 5595 5595 5595 5595 5596 5597 5598 5600 5601 5602 5603 5605 5606 5608 5609 5611 5612 5614 5615 5615 5616 5617 5618 5620 5621 5621 5621 5622 5623 5623 5624 5625 5625 5626 5627 5628 5629 5630 5631 5632 5634 5635 5636 5637 5638 5638 5639 5640 5641 5642 5644 5645 5647 5649 5650 5651 5653 5654 5655
5667 5665 5663 5661 5658 5655 5652 5649 5645 5642 5638 5634 5630 5626 5622 5618 5615 5611 5608 5604 5601 5598 5596 5594 5591 5589 5588 5588 5587 5587 5587 5588 5589 5590 5592 5593 5595 5597 5598 5600 5601 5603 5605 5606 5608 5608 5609 5610 5611 5613 5615 5615 5615 5616 5617 5619 5620 5620 5621 5622 5622 5623 5624 5626 5627 5628 5629 5630 5631 5632 5632 5634 5635 5636 5637 5638 5639 5641 5642 5644 5645 5646 5647 5649 5650
5665 5663 5661 5659 5657 5654 5651 5648 5645 5641 5638 5634 5630 5626 5622 5617 5613 5609 5606 5602 5599 5596 5593 5590 5587 5585 5583 5582 5581 5580 5580 5580 5581 5582 5583 5585 5586 5588 5590 5592 5594 5595 5597 5599 5600 5602 5603 5604 5605 5606 5608 5609 5610 5611 5612 5613 5614 5615 5616 5617 5618 5619 5620 5621 5622 5622 5624 5625 5626 5626 5627 5629 5630 5631 5632 5633 5635 5636 5637 5639 5640 5641 5642 5643 5644
5663 5661 5659 5657 5655 5653 5650 5647 5644 5641 5638 5634 5630 5626 5622 5617 5613 5609 5604 5601 5597 5594 5590 5588 5585 5582 5579 5577 5576 5575 5574 5574 5574 5574 5575 5576 5578 5580 5582 5584 5586 5588 5590 5592 5593 5595 5596 5598 5599 5600 5602 5603 5605 5606 5607 5608 5609 5609 5611 5612 5613 5614 5615 5616 5617 5618 5619 5620 5621 5621 5623 5624 5625 5626 5627 5628 5630 5631 5632 5634 5635 5636 5637 5638 5638
5661 5659 5657 5655 5653 5651 5648 5646 5643 5640 5637 5634 5630 5626 5622 5618 5613 5609 5604 5600 5596 5592 5589 5585 5582 5580 5577 5574 5572 5570 5569 5568 5568 5568 5568 5569 5571 5572 5574 5576 5578 5580 5582 5584 5586 5588 5589 5591 5593 5594 5596 5598 5599 5601 5602 5602 5603 5604 5605 5606 5607 5608 5610 5611 5612 5613 5614 5615 5616 5617 5618 5619 5620 5621 5622 5623 5624 5626 5627 5629 5630 5631 5631 5632 5633
5659 5657 5655 5653 5651 5649 5647 5644 5642 5639 5636 5632 5629 5626 5622 5618 5614 5610 5605 5600 5596 5592 5588 5585 5581 5578 5575 5572 5569 5567 5565 5564 5563 5563 5563 5563 5564 5565 5567 5569 5571 5573 5575 5577 5579 5581 5583 5584 5586 5588 5590 5592 5594 5595 5597 5597 5598 5599 5600 5601 5602 5603 5604 5605 5607 5608 5609 5610 5611 5612 5613 5614 5615 5616 5617 5618 5619 5620 5622 5623 5625 5625 5625 5626 5627
5657 5655 5654 5652 5650 5648 5645 5643 5640 5637 5634 5631 5628 5625 5622 5618 5614 5610 5606 5601 5597 5592 5588 5584 5581 5577 5574 5571 5567 5564 5562 5561 5559 5559 5558 5558 5558 5559 5560 5562 5563 5565 5567 5569 5571 5573 5575 5577 5579 5581 5583 5585 5587 5589 5590 5591 5592 5593 5595 5596 5597 5598 5599 5600 5601 5602 5603 5604 5605 5606 5607 5608 5609 5611 5612 5613 5614 5615 5616 5618 5620 5620 5620 5621 5622
5656 5654 5652 5650 5648 5646 5644 5642 5639 5636 5633 5630 5628 5624 5621 5618 5614 5610 5606 5602 5598 5593 5589 5584 5580 5577 5573 5570 5566 5563 5560 5558 5556 5555 5554 5554 5554 5554 5555 5556 5557 5559 5560 5562 5564 5566 5568 5570 5572 5574 5576 5578 5580 5582 5583 5585 5586 5588 5589 5590 5591 5592 5594 5595 5596 5597 5598 5598 5599 5600 5601 5602 5603 5604 5606 5607 5608 5609 5611 5612 5614 5615 5616 5616 5617
5655 5653 5651 5649 5647 5645 5643 5641 5638 5635 5633 5630 5627 5624 5621 5617 5614 5610 5606 5602 5598 5594 5589 5584 5580 5577 5573 5569 5566 5562 5559 5556 5554 5552 5551 5550 5550 5550 5550 5551 5552 5553 5554 5556 5557 5559 5562 5564 5566 5568 5570 5571 5573 5575 5577 5579 5580 5582 5583 5584 5585 5586 5587 5589 5590 5591 5592 5592 5593 5594 5595 5596 5597 5598 5599 5600 5602 5603 5605 5606 5607 5608 5610 5611 5611
5653 5651 5650 5648 5646 5644 5642 5640 5638 5635 5632 5630 5627 5624 5620 5617 5614 5610 5606 5602 5598 5594 5590 5585 5580 5576 5573 5569 5566 5562 5559 5556 5552 5550 5548 5547 5547 5546 5546 5546 5547 5548 5549 5550 5552 5553 5555 5557 5559 5561 5563 5565 5566 5568 5570 5572 5573 5575 5576 5578 5579 5580 5581 5582 5583 5584 5585 5586 5587 5588 5589 5590 5590 5591 5592 5593 5595 5596 5598 5599 5600 5601 5602 5603 5603
5651 5650 5648 5647 5645 5643 5641 5639 5637 5634 5632 5629 5626 5623 5620 5617 5614 5610 5606 5603 5599 5595 5591 5586 5582 5577 5573 5570 5567 5563 5559 5555 5552 5549 5546 5545 5544 5543 5543 5543 5543 5544 5544 5545 5547 5548 5549 5551 5553 5555 5556 5558 5559 5561 5563 5564 5566 5568 5569 5571 5572 5573 5575 5576 5577 5578 5578 5579 5580 5581 5582 5583 5584 5585 5586 5587 5588 5589 5590 5592 5593 5594 5595 5595 5595
5650 5649 5647 5645 5644 5642 5640 5638 5636 5634 5631 5629 5626 5623 5620 5616 5613 5610 5607 5604 5600 5596 5592 5588 5584 5579 5574 5570 5567 5563 5559 5555 5552 5549 5546 5544 5542 5541 5540 5540 5540 5540 5540 5541 5542 5543 5545 5546 5547 5549 5550 5552 5553 5555 5556 5557 5559 5561 5562 5564 5565 5567 5568 5569 5570 5571 5572 5573 5574 5575 5576 5577 5577 5578 5579 5580 5581 5582 5583 5585 5586 5587 5588 5588 5587
5648 5647 5645 5644 5642 5641 5639 5637 5635 5633 5631 5628 5625 5622 5619 5616 5613 5610 5607 5604 5600 5596 5592 5589 5585 5580 5576 5571 5567 5564 5561 5557 5553 5550 5546 5544 5541 5539 5538 5537 5537 5537 5537 5538 5538 5539 5540 5541 5542 5544 5545 5547 5548 5549 5550 5551 5552 5553 5555 5557 5558 5560 5561 5562 5563 5564 5565 5567 5568 5569 5570 5571 5571 5572 5573 5574 5574 5575 5576 5578 5579 5580 5582 5582 5581
5647 5646 5644 5643 5641 5640 5638 5635 5633 5631 5629 5627 5624 5621 5618 5615 5613 5610 5607 5603 5600 5596 5592 5589 5585 5582 5577 5573 5568 5564 5561 5558 5555 5551 5547 5544 5541 5539 5537 5535 5534 5534 5534 5534 5535 5535 5536 5537 5538 5539 5540 5542 5542 5543 5544 5545 5546 5547 5548 5549 5551 5552 5554 5555 5556 5558 5559 5560 5562 5563 5564 5564 5565 5566 5566 5567 5568 5569 5570 5571 5572 5573 5574 5575 5575
5646 5644 5643 5641 5640 5638 5636 5634 5632 5630 5627 5625 5623 5620 5617 5615 5612 5610 5606 5602 5599 5595 5592 5589 5586 5582 5578 5574 5570 5565 5562 5559 5555 5552 5548 5545 5542 5539 5537 5535 5533 5532 5531 5531 5531 5532 5532 5533 5534 5535 5536 5537 5537 5538 5539 5540 5541 5542 5543 5544 5544 5545 5547 5548 5550 5551 5553 5554 5555 5556 5557 5558 5558 5559 5560 5561 5562 5562 5564 5564 5565 5565 5567 5568 5568
5644 5643 5641 5640 5638 5636 5635 5633 5631 5629 5626 5624 5621 5619 5617 5614 5611 5608 5605 5602 5598 5595 5592 5589 5586 5582 5579 5575 5571 5567 5563 5559 5556 5553 5550 5546 5543 5540 5537 5535 5533 5531 5530 5529 5529 5529 5529 5529 5530 5530 5531 5532 5533 5533 5534 5535 5536 5537 5538 5538 5539 5540 5541 5543 5544 5545 5546 5547 5548 5549 5550 5551 5552 5552 5553 5554 5555 5556 5556 5556 5557 5558 5560 5561 5561
5643 5642 5640 5638 5637 5635 5633 5631 5629 5627 5625 5623 5621 5618 5616 5613 5610 5607 5604 5601 5598 5595 5592 5589 5586 5582 5579 5576 5572 5568 5564 5560 5557 5553 5550 5547 5544 5541 5538 5535 5533 5531 5530 5528 5527 5527 5526 5526 5526 5527 5528 5528 5528 5529 5530 5530 5531 5532 5533 5533 5534 5535 5536 5537 5538 5539 5540 5540 5541 5542 5544 5544 5545 5546 5546 5547 5548 5549 5549 5549 5550 5551 5553 5553 5554
5642 5640 5639 5637 5636 5634 5632 5630 5628 5626 5624 5622 5619 5617 5614 5611 5609 5605 5602 5600 5597 5595 5592 5589 5586 5583 5580 5576 5573 5569 5566 5562 5558 5554 5550 5547 5544 5542 5539 5536 5534 5531 5529 5528 5527 5526 5525 5524 5524 5524 5524 5524 5525 5525 5526 5526 5527 5527 5528 5529 5530 5530 5531 5532 5533 5534 5534 5535 5536 5537 5538 5539 5539 5539 5540 5541 5542 5542 5542 5543 5544 5545 5546 5547 5548
5641 5640 5638 5636 5635 5633 5631 5629 5627 5625 5622 5620 5618 5615 5612 5610 5607 5605 5602 5599 5596 5593 5591 5588 5586 5583 5580 5576 5573 5570 5566 5563 5559 5555 5552 5548 5545 5542 5540 5537 5534 5532 5530 5528 5526 5525 5524 5523 5523 5522 5522 5522 5522 5522 5522 5523 5523 5524 5524 5525 5525 5526 5527 5527 5528 5528 5529 5530 5531 5532 5532 5533 5533 5534 5535 5536 5536 5536 5537 5538 5539 5539 5539 5541 5542
5640 5638 5637 5635 5633 5632 5630 5628 5626 5624 5621 5619 5616 5614 5611 5608 5606 5604 5601 5599 5596 5593 5590 5587 5585 5582 5579 5576 5573 5570 5567 5563 5560 5556 5553 5550 5547 5544 5540 5537 5535 5532 5530 5528 5526 5525 5523 5523 5522 5521 5520 5520 5520 5519 5520 5520 5520 5520 5521 5521 5522 5522 5523 5523 5524 5524 5524 5525 5526 5527 5527 5528 5528 5529 5530 5531 5531 5531 5533 5534 5534 5535 5535 5536 5537
5638 5637 5635 5633 5632 5630 5628 5626 5624 5622 5620 5618 5615 5613 5610 5608 5605 5602 5600 5597 5595 5592 5589 5586 5584 5581 5579 5576 5573 5570 5567 5564 5560 5557 5554 5551 5548 5545 5541 5538 5535 5532 5530 5528 5526 5524 5523 5522 5521 5520 5519 5519 5518 5518 5518 5518 5518 5518 5518 5518 5519 5519 5520 5520 5520 5520 5521 5521 5522 5523 5524 5524 5525 5525 5526 5527 5527 5528 5529 5530 5531 5531 5532 5532 5533
5637 5635 5634 5632 5630 5628 5627 5625 5623 5621 5619 5616 5614 5611 5609 5606 5604 5601 5598 5595 5593 5591 5588 5585 5583 5580 5578 5575 5572 5570 5567 5564 5561 5557 5554 5551 5548 5545 5542 5539 5536 5533 5531 5528 5526 5524 5522 5521 5520 5519 5518 5518 5517 5517 5516 5516 5516 5516 5516 5516 5516 5517 5517 5518 5518 5518 5518 5518 5519 5520 5521 5521 5521 5522 5523 5524 5524 5525 5526 5527 5527 5528 5529 5529 5530
5635 5634 5632 5631 5629 5627 5625 5623 5621 5619 5617 5615 5612 5610 5607 5605 5602 5600 5597 5594 5592 5589 5587 5584 5582 5579 5577 5574 5572 5569 5566 5563 5560 5557 5554 5551 5548 5545 5542 5540 5537 5534 5531 5528 5526 5524 5522 5521 5519 5518 5517 5517 5516 5516 5515 5515 5514 5514 5514 5514 5514 5514 5515 5515 5516 5516 5516 5516 5517 5518 5518 5519 5519 5520 5520 5521 5521 5522 5523 5524 5525 5526 5526 5527 5528
5634 5632 5631 5629 5627 5625 5623 5621 5619 5617 5615 5613 5611 5609 5606 5603 5601 5598 5596 5593 5591 5588 5585 5583 5580 5578 5575 5573 5570 5568 5566 5563 5560 5557 5554 5551 5548 5545 5542 5540 5537 5534 5532 5529 5526 5524 5522 5520 5518 5517 5517 5516 5515 5514 5514 5514 5513 5513 5513 5513 5512 5512 5513 5513 5514 5514 5514 5515 5515 5516 5516 5517 5517 5517 5518 5519 5520 5520 5521 5521 5522 5523 5524 5525 5525
5632 5631 5629 5627 5625 5624 5622 5620 5618 5616 5614 5612 5610 5607 5605 5602 5599 5597 5594 5592 5589 5586 5584 5581 5579 5576 5574 5572 5569 5567 5564 5562 5559 5557 5554 5551 5548 5546 5543 5540 5537 5534 5532 5529 5527 5524 5522 5519 5517 5516 5516 5515 5514 5513 5513 5512 5512 5512 5511 5511 5511 5511 5511 5511 5511 5512 5512 5513 5513 5514 5514 5515 5515 5516 5516 5517 5518 5518 5519 5519 5520 5521 5522 5522 5523